User: anonymous   Login
Location: Unspecified
(0.0000°N, 0.0000°E)
Time: 12:11:44
(UTC+01:00)
Language:

Meteor 1-10 Rocket - Orbit

View from above orbital plane
View from above orbital plane
View from above satellite
View from above satellite

Ground track
Ground track

The orbit data is extracted from the following two-line orbital elements,

1 05732U 71120B   15062.50867502  .00000177  00000-0  99924-4 0  9997
2 05732 081.2509 211.3061 0050977 235.0811 124.5562 14.05866756221363
Epoch (UTC): 03 March 2015 12:12:29
Eccentricity: 0.0050977
inclination: 81.2509°
perigee height: 836 km
apogee height: 910 km
right ascension of ascending node: 211.3061°
argument of perigee: 235.0811°
revolutions per day: 14.05866756
mean anomaly at epoch: 124.5562°
orbit number at epoch: 22136

The dashed part of the orbit path shows where the satellite is in the earth's shadow,  

DLR